Home   Weather   Murmansk   Past weeks

Flag for Russia Past Weather in Murmansk, Russia — Yesterday and Last 2 Weeks

Now
54 °F

Partly sunny.


Feels Like: 53 °F
Forecast: 44 / 55 °F
Wind: 3 mph from South

Location: Murmansk Airport

Current Time: Sep 26, 2016 at 6:39:50 PM

Latest Report: Sep 26, 2016 at 5:30 PM


Visibility: N/A

Pressure: 30.21 "Hg

Humidity: 77%

Dew Point: 46 °F

Location of MurmanskLocation

Past Weather in Murmansk — Graph

°F

Murmansk Temperature Yesterday

Maximum temperature yesterday: 50 °F (at 3:30 PM)
Minimum temperature yesterday: 39 °F (at 4:30 AM)
Average temperature yesterday: 44 °F

High & Low Weather Summary for the Past Weeks

 TemperatureHumidityPressure
High59 °F (Sep 14, 2:00 PM)94% (Sep 11, 9:00 PM)30.36 "Hg (Sep 11, 9:00 PM)
Low27 °F (Sep 18, 5:00 AM)51% (Sep 14, 2:00 PM)29.45 "Hg (Sep 12, 7:30 AM)
Average45 °F82%30.08 "Hg
* Reported Sep 11 5:00 PM — Sep 26 5:00 PM, Murmansk, Weather by CustomWeather, © 2016

Note: Actual official high and low records may vary slightly from our data, if they occured in-between our weather recording intervals... More about our weather records

Advertising

Murmansk Weather History for the Previous 24 Hours

Scroll right to see more
 ConditionsComfort  
Time TempWeatherWind HumidityBarometerVisibility
5:00 PM
Mon, Sep 26
54 °FPartly sunny.3 mph72%30.18 "HgN/A
4:30 PM54 °FPartly sunny.3 mph77%30.18 "HgN/A
4:00 PM54 °FPartly sunny.6 mph77%30.18 "HgN/A
3:30 PM54 °FPartly sunny.3 mph77%30.18 "HgN/A
3:00 PM52 °FPartly sunny.6 mph77%30.18 "HgN/A
2:30 PM54 °FPartly sunny.3 mph77%30.18 "HgN/A
2:00 PM52 °FPartly sunny.1 mph77%30.18 "HgN/A
1:30 PM52 °FPartly sunny.1 mph77%30.18 "HgN/A
1:00 PM50 °FPartly sunny.3 mph82%30.18 "HgN/A
12:30 PM50 °FPartly sunny.3 mph82%30.18 "HgN/A
12:00 PM50 °FPartly sunny.3 mph76%30.18 "HgN/A
11:30 AM48 °FPartly sunny.3 mph82%30.18 "HgN/A
11:00 AM48 °FPartly sunny.3 mph82%30.15 "HgN/A
10:30 AM46 °FPartly sunny.3 mph87%30.15 "HgN/A
10:00 AM46 °FPartly sunny.6 mph87%30.15 "HgN/A
9:30 AM46 °FPartly sunny.3 mph87%30.15 "HgN/A
9:00 AM45 °FPartly sunny.6 mph87%30.15 "HgN/A
8:30 AM45 °FPartly sunny.3 mph87%30.15 "HgN/A
8:00 AM41 °FPartly sunny.3 mph93%30.15 "HgN/A
7:30 AM39 °FPartly sunny.1 mph87%30.15 "HgN/A
7:00 AM41 °FScattered clouds.1 mph87%30.15 "HgN/A
6:30 AM41 °FPassing clouds.1 mph87%30.12 "HgN/A
6:00 AM41 °FPassing clouds.No wind93%30.12 "HgN/A
5:30 AM43 °FPassing clouds.1 mph87%30.12 "HgN/A
5:00 AM41 °FPassing clouds.1 mph93%30.12 "HgN/A
4:30 AM43 °FPassing clouds.No wind87%30.12 "HgN/A
4:00 AM43 °FPassing clouds.1 mph87%30.12 "HgN/A
3:30 AM43 °FPassing clouds.3 mph93%30.12 "HgN/A
3:00 AM45 °FPassing clouds.1 mph87%30.12 "HgN/A
2:30 AM43 °FPassing clouds.No wind93%30.09 "HgN/A
2:00 AM43 °FPassing clouds.3 mph93%30.09 "HgN/A
1:30 AM43 °FPassing clouds.1 mph87%30.09 "HgN/A
1:00 AM43 °FPassing clouds.1 mph87%30.09 "HgN/A
12:30 AM41 °FPassing clouds.1 mph93%30.09 "HgN/A
12:00 AM41 °FPassing clouds.No wind87%30.07 "HgN/A
11:30 PM
Sun, Sep 25
41 °FPassing clouds.1 mph87%30.07 "HgN/A
11:00 PM41 °FPassing clouds.1 mph87%30.07 "HgN/A
10:00 PM43 °FClear.1 mph87%30.04 "Hg10 mi
9:30 PM45 °FClear.1 mph81%30.04 "Hg10 mi
9:00 PM46 °FClear.1 mph76%30.04 "Hg10 mi
8:30 PM45 °FClear.No wind81%30.04 "Hg10 mi
8:00 PM45 °FClear.1 mph81%30.04 "Hg10 mi
7:30 PM45 °FClear.1 mph81%30.01 "Hg10 mi
7:00 PM46 °FClear.3 mph82%30.01 "Hg10 mi
6:30 PM46 °FPassing clouds.1 mph82%30.01 "HgN/A
6:00 PM48 °FPassing clouds.1 mph76%30.01 "HgN/A
Weather by CustomWeather, © 2016

See weather overviewHow to use our weather pages